• Join FlightAware (Why Join?)
  • Login
  • US Flag GB Flag 
14:00 EST


 

Airport Tracker/Info


-or-


 

Live Flight TrackerFlight Track Log ✈ N724JS ✈ 17-Jul-2014 ✈ KLAS - KSNA

Flight Track Log - Related Links

Times and Time Zones

All times are in EDT time to prevent confusion due to time zone crossing. See the N724JS flight status page for this flight to view local times or setup timezone preferences in your user account.

Time Position Orientation Groundspeed Altitude Reporting Facility
EDT Latitude Longitude Course Direction KTS MPH feet Rate Location/Type
13:43 36.0781 -115.1169 90° East 207 238 3,300  Level Los Angeles Center
13:44 36.0797 -115.0367 89° East 238 274 6,200 2,940 Climbing Los Angeles Center
13:45 36.0803 -114.9994 89° East 237 273 7,700 3,120 Climbing Los Angeles Center
13:45 36.0650 -114.9589 115° Southeast 257 296 9,400 2,940 Climbing Los Angeles Center
13:46 36.0336 -114.9561 176° South 256 295 10,800 2,940 Climbing Los Angeles Center
13:46 35.9969 -114.9842 212° Southwest 286 329 12,400 3,240 Climbing Los Angeles Center
13:47 35.9639 -115.0183 220° Southwest 289 333 14,200 3,240 Climbing Los Angeles Center
13:48 35.8958 -115.0856 219° Southwest 311 358 17,500 2,940 Climbing Los Angeles Center
13:49 35.8225 -115.1547 217° Southwest 330 380 20,300 2,580 Climbing Los Angeles Center
13:50 35.7394 -115.2347 218° Southwest 352 405 22,900 1,500 Climbing Los Angeles Center
13:51 35.6603 -115.3147 219° Southwest 386 444 23,400 480 Climbing Los Angeles Center
13:52 35.5767 -115.4297 228° Southwest 430 495 24,000 420 Climbing Los Angeles Center
13:53 35.4703 -115.5731 228° Southwest 460 529 24,300 1,200 Climbing Los Angeles Center
13:54 35.3978 -115.6683 227° Southwest 464 534 26,500 1,740 Climbing Los Angeles Center
13:55 35.2978 -115.8022 228° Southwest 448 516 28,000 720 Climbing Los Angeles Center
13:56 35.2106 -115.9181 227° Southwest 458 527 28,000  Level Los Angeles Center
13:57 35.1203 -116.0378 227° Southwest 473 544 28,000  Level Los Angeles Center
13:58 35.0289 -116.1558 227° Southwest 476 548 28,000  Level Los Angeles Center
13:59 34.9397 -116.2764 228° Southwest 476 548 28,000  Level Los Angeles Center
14:00 34.8483 -116.3950 227° Southwest 476 548 28,000 -540 Level Los Angeles Center
14:01 34.7372 -116.5350 226° Southwest 477 549 27,000 -1,200 Descending Los Angeles Center
14:02 34.6428 -116.6514 225° Southwest 480 552 25,600 -1,440 Descending Los Angeles Center
14:03 34.5522 -116.7622 225° Southwest 460 529 24,000 -1,980 Descending Los Angeles Center
14:04 34.4736 -116.8575 225° Southwest 407 468 21,500 -3,000 Descending Los Angeles Center
14:05 34.3950 -116.9514 225° Southwest 400 460 17,800 -3,540 Descending Los Angeles Center
14:06 34.3197 -117.0431 225° Southwest 388 447 14,300 -2,340 Descending Los Angeles Center
14:07 34.2228 -117.1167 212° Southwest 359 413 13,000 -660 Descending Los Angeles Center
14:09 34.1294 -117.1322 188° South 342 394 13,000  Level Los Angeles Center
14:10 34.0261 -117.1469 187° South 351 404 13,000 -360 Level Los Angeles Center
14:11 33.9000 -117.1667 187° South 349 402 12,300 -900 Descending Southern California TRACON
14:12 33.8167 -117.1833 189° South 329 379 11,100 -1,320 Descending Southern California TRACON
14:13 33.7833 -117.2667 244° Southwest 285 328 9,700 -1,260 Descending Southern California TRACON
14:14 33.7833 -117.3667 270° West 258 297 8,600 -780 Descending Southern California TRACON
14:15 33.7789 -117.4281 265° West 257 296 8,300 -360 Descending Los Angeles Center
14:16 33.7797 -117.5167 271° West 264 304 8,000 -840 Descending Los Angeles Center
14:17 33.7806 -117.5950 271° West 243 280 6,600 -1,140 Descending Los Angeles Center
14:18 33.8167 -117.6833 296° West 221 254 5,800 -1,380 Descending Southern California TRACON
14:19 33.8333 -117.7500 287° West 236 272 3,900 -1,440 Descending Southern California TRACON
14:20 33.7833 -117.8000 220° Southwest 203 234 3,000 -1,140 Descending Southern California TRACON
14:21 33.7500 -117.8167 203° Southwest 173 199 1,700 -1,200 Descending Southern California TRACON
14:22 33.7000 -117.8500 209° Southwest 150 173 600 -1,140 Descending Southern California TRACON
14:25 33.6757 -117.8682 North  Level Estimated
14:32 33.6757 -117.8682 North  Level Estimated